Location: Unspecified
(48.2082°N, 0.0000°E)
Time: 07:26:02
(UTC+00:00)

Transit 4A - Pass Details

Date: 19 June 2019
Orbit: 862 x 982 km, 66.8° (Epoch: 21 July)

Event Time Altitude Azimuth Distance (km) Brightness Sun altitude
Rises 17:31:07 0° 324° (NW) 3,695 11.7 22.1°
Reaches altitude 10° 17:33:43 10° 322° (NW) 2,739 11.2 21.7°
Maximum altitude 17:40:07 74° 239° (WSW) 1,006 8.7 20.7°
Drops below altitude 10° 17:46:20 10° 156° (SSE) 2,666 10.0 19.7°
Sets 17:48:50 0° 154° (SSE) 3,591 10.6 19.3°
